Location: Kellogg
(38.0159°N, 90.0546°W)
Time: 22:34:24
(UTC+00:00)

SR - Pass Details

Date: 11 September 2024
Orbit: 578 x 855 km, 66.7° (Epoch: 09 October)

Event Time Altitude Azimuth Distance (km) Brightness Sun altitude
Rises 18:26:21 0° 159° (SSE) 2,845 ? 55.5°
Reaches altitude 10° 18:30:04 10° 126° (SE) 1,910 ? 55.3°
Maximum altitude 18:31:32 12° 106° (ESE) 1,798 ? 55.2°
Drops below altitude 10° 18:33:00 10° 85° (E) 1,896 ? 55.1°
Sets 18:36:37 0° 53° (NE) 2,793 ? 54.9°
